Location: Newark
(48.5156°N, 1.8989°W)
Time: 05:41:03
(UTC+00:00)

Explorer 7 - All Passes

Search period start: 19 November 2019 00:00
Search period end: 29 November 2019 00:00
Orbit: 485 x 680 km, 50.3° (Epoch: 18 November)

Date Brightness Start Highest point End Pass type
(mag) Time Alt. Az. Time Alt. Az. Time Alt. Az.
19 Nov - 00:44:50 10° SW 00:49:20 54° SSE 00:53:34 10° ENE night (unlit)
19 Nov - 02:25:25 10° W 02:29:53 73° N 02:34:05 10° ENE night (unlit)
19 Nov - 04:06:20 10° WNW 04:10:39 79° NNE 04:14:40 10° E visible
19 Nov - 05:47:08 10° W 05:51:00 39° SSW 05:54:39 10° SE visible
19 Nov - 23:10:28 10° S 23:14:06 22° SE 23:17:37 10° E night (unlit)
20 Nov - 00:49:39 10° WSW 00:54:15 71° SSE 00:58:34 10° ENE night (unlit)
20 Nov - 02:30:28 10° W 02:34:55 68° N 02:39:05 10° E night (unlit)
20 Nov - 04:11:19 10° WNW 04:15:38 87° SSW 04:19:39 10° ESE visible
20 Nov - 05:52:18 10° W 05:55:48 27° SW 05:59:07 10° SSE visible
20 Nov - 23:14:42 10° SSW 23:18:53 32° SE 23:22:52 10° E night (unlit)
21 Nov - 00:54:35 10° WSW 00:59:12 88° SSE 01:03:33 10° ENE night (unlit)
21 Nov - 02:35:30 10° W 02:39:57 69° N 02:44:07 10° E night (unlit)
21 Nov - 04:16:19 10° WNW 04:20:35 68° SSW 04:24:34 10° ESE visible
21 Nov - 05:57:40 10° W 06:00:31 18° SW 06:03:16 10° S visible
21 Nov - 21:42:12 10° SSE 21:43:53 12° SE 21:45:35 10° ESE night (unlit)
21 Nov - 23:19:14 10° SW 23:23:43 44° SSE 23:27:59 10° ENE night (unlit)
22 Nov - 00:59:34 10° W 01:04:12 79° NNW 01:08:32 10° ENE night (unlit)
22 Nov - 02:40:32 10° WNW 02:44:59 73° N 02:49:09 10° E night (unlit)
22 Nov - 04:21:19 10° WNW 04:25:29 50° SSW 04:29:22 10° SE visible
22 Nov - 06:03:37 10° WSW 06:05:10 12° SW 06:06:41 10° SSW visible
22 Nov - 21:45:22 10° S 21:48:34 18° SE 21:51:41 10° E night (unlit)
22 Nov - 23:23:56 10° SW 23:28:36 60° SSE 23:33:01 10° ENE night (unlit)
23 Nov - 01:04:36 10° W 01:09:13 72° N 01:13:32 10° ENE night (unlit)
23 Nov - 02:45:32 10° WNW 02:50:00 83° NNE 02:54:09 10° ESE night (unlit)
23 Nov - 04:26:24 10° W 04:30:19 35° SW 04:34:00 10° SSE visible
23 Nov - 21:49:20 10° SSW 21:53:18 26° SE 21:57:07 10° E night (unlit)
23 Nov - 23:28:47 10° WSW 23:33:32 77° SSE 23:38:00 10° ENE night (unlit)
24 Nov - 01:09:39 10° W 01:14:15 69° N 01:18:33 10° E night (unlit)
24 Nov - 02:50:31 10° WNW 02:54:59 81° SSW 02:59:07 10° ESE night (unlit)
24 Nov - 04:31:35 10° W 04:35:04 25° SW 04:38:23 10° SSE visible
24 Nov - 21:53:41 10° SSW 21:58:06 36° SE 22:02:19 10° E night (unlit)
24 Nov - 23:33:44 10° WSW 23:38:30 88° NNW 23:42:59 10° ENE night (unlit)
25 Nov - 01:14:41 10° W 01:19:17 70° N 01:23:35 10° E night (unlit)
25 Nov - 02:55:31 10° WNW 02:59:54 63° SSW 03:03:59 10° SE night (unlit)
25 Nov - 04:37:02 10° W 04:39:46 17° SW 04:42:25 10° S visible
25 Nov - 20:20:33 10° SSE 20:23:03 14° SE 20:25:30 10° ESE night (unlit)
25 Nov - 21:58:16 10° SW 22:02:56 50° SSE 22:07:23 10° ENE night (unlit)
25 Nov - 23:38:45 10° W 23:43:30 77° N 23:47:58 10° ENE night (unlit)
26 Nov - 01:19:42 10° WNW 01:24:18 77° N 01:28:36 10° E night (unlit)
26 Nov - 03:00:32 10° WNW 03:04:46 46° SSW 03:08:44 10° SE night (unlit)
26 Nov - 04:43:23 10° WSW 04:44:24 11° SW 04:45:24 10° SW visible
26 Nov - 20:24:08 10° S 20:27:44 21° SE 20:31:15 10° E night (unlit)
26 Nov - 22:03:02 10° WSW 22:07:49 66° SSE 22:12:24 10° ENE night (unlit)
26 Nov - 23:43:47 10° W 23:48:31 71° N 23:52:58 10° E night (unlit)
27 Nov - 01:24:42 10° WNW 01:29:18 88° NNE 01:33:36 10° ESE night (unlit)
27 Nov - 03:05:38 10° W 03:09:35 33° SW 03:13:18 10° SSE night (unlit)
27 Nov - 20:28:16 10° SSW 20:32:28 29° SE 20:36:34 10° E night (unlit)
27 Nov - 22:07:55 10° WSW 22:12:46 83° SSE 22:17:23 10° ENE night (unlit)
27 Nov - 23:48:50 10° W 23:53:32 69° N 23:57:59 10° E night (unlit)
28 Nov - 01:29:41 10° WNW 01:34:15 76° SSW 01:38:32 10° ESE night (unlit)
28 Nov - 03:10:52 10° W 03:14:19 23° SW 03:17:37 10° SSE night (unlit)
28 Nov - 18:56:37 10° SE 18:57:32 10° SE 18:58:28 10° ESE visible
28 Nov - 20:32:42 10° SW 20:37:16 41° SSE 20:41:43 10° ENE night (unlit)
28 Nov - 22:12:54 10° WSW 22:17:44 84° NNW 22:22:21 10° ENE night (unlit)
